Orbital elements:
2008 CL1                                                 Earth MOID = 0.1002 AU
Epoch 2008 Nov. 30.0 TT = JDT 2454800.5                 MPC
M  97.26838              (2000.0)            P               Q
n   1.04606780     Peri.    4.66085     +0.97787285     +0.15810868
a   0.9610873      Node   344.11053     -0.20445041     +0.58352957
e   0.1374069      Incl.   30.02395     -0.04432520     +0.79655187
P   0.94           H   19.5           G   0.15           U   2
Residuals in seconds of arc
080202 704  1.0-  0.9+    080223 H51  0.0   0.0     080305 704  1.0+  0.2+
080202 704  0.3-  0.8+    080227 H45  0.1-  0.1-    080305 704  0.9+  0.2+
080202 704  0.6-  1.2+    080227 H45  0.0   0.0     080305 H45  0.0   0.1-
080202 704  0.0   0.7+    080227 H45  0.2+  0.0     080305 H45  0.3+  0.1+
080203 B03  0.1-  0.2-    080227 H45  0.1+  0.1+    080305 H45  0.0   0.1+
080203 B03  0.1-  0.0     080227 H45  0.0   0.1+    080305 H45  0.3+  0.1+
080203 B03  0.1+  0.5+    080227 H45  0.2-  0.2-    080305 H45  0.0   0.1+
080203 B03  0.2+  0.3+    080227 H45  0.0   0.0     080305 H45  0.0   0.0
080203 B03  0.1-  0.1+    080227 H45  0.0   0.0     080305 G96  0.4-  0.2-
080203 B03  0.1-  0.0     080227 448  0.2+  0.1+    080305 G96  0.4-  0.2-
080203 118  0.1-  0.2-    080227 448  0.1-  0.1-    080305 G96  0.2-  0.2-
080203 118  0.3-  0.2-    080227 448  0.1+  0.2+    080305 G96  0.7-  0.5-
080203 118  0.0   0.0     080227 448  0.0   0.2+    080305 379  0.2-  0.5-
080203 854  0.1-  0.3+    080227 448  0.2+  0.2+    080305 379  0.0   0.1-
080203 854  0.8-  0.1+    080228 G72  0.8+  0.4+    080305 379  0.1-  0.2+
080203 854  0.2+  0.9-    080228 G72  0.5+  0.4+    080305 379  0.3-  0.1-
080203 711  0.2+  0.2+    080228 H45  0.2-  0.0     080305 379  0.1-  0.3+
080203 711  1.1+  0.0     080228 H45  0.2-  0.1-    080305 639  0.2-  0.3-
080203 711 (1.6+  0.1-)   080228 H45  0.1-  0.1-    080305 639  0.1-  0.4-
080203 A80  0.4+  0.4+    080228 G72  0.9+  0.3+    080305 639  0.2-  0.1-
080203 A80  1.0+  0.0     080228 H45  0.1-  0.1-    080305 639  0.0   0.2-
080203 A80  0.1+  0.2-    080228 H45  0.3-  0.1-    080305 639  0.5-  0.3-
080204 711  0.0   0.4+    080228 H45  0.2-  0.0     080305 639  0.3-  0.5-
080204 711  0.2+  0.3+    080228 H45  0.1-  0.0     080305 639  0.2-  0.5-
080204 711  0.2-  0.1+    080228 G72  0.7+  0.2+    080306 510  0.2-  0.0
080206 711  0.1+  0.3+    080228 G72  0.6+  0.2+    080306 510  0.9+  0.2-
080206 711  0.2-  0.3+    080228 G72  0.3+  0.2+    080307 H51  0.5-  0.0
080206 711  0.1+  0.2+    080228 448  0.1-  0.1-    080307 H51  0.4-  0.3-
080209 448  0.3-  0.5-    080228 448  0.1+  0.0     080307 H51  0.1+  0.0
080209 448  0.1+  0.4-    080228 448  0.0   0.1-    080307 H51  0.3-  0.1-
080209 448  0.2-  0.2-    080228 448  0.1-  0.2-    080307 H51  0.2-  0.0
080209 448  0.3+  0.4-    080228 448  0.3-  0.2-    080307 H51  0.6-  0.3-
080212 046  0.1-  0.4+    080228 379  0.6+  0.1+    080307 H51  0.2-  0.1-
080212 046  0.5-  0.3-    080228 379  0.1+  0.2+    080307 H51  0.1-  0.2-
080212 046  0.3+  0.1-    080228 379  0.6+  0.5+    080307 H51  0.4-  0.1-
080212 046  0.0   0.4+    080228 379  0.0   0.3+    080307 H51  0.1-  0.3-
080212 046  0.6-  0.0     080228 379  0.0   0.4-    080307 H51  0.1-  0.2-
080212 046  0.4-  0.4+    080228 379  0.2-  0.1-    080307 H51  0.3-  0.1-
080212 046  0.1+  0.0     080228 379  0.6+  0.1-    080307 H51  0.4-  0.1-
080212 703  0.2+  0.2-    080228 379  0.7+  0.2-    080307 H51  0.0   0.1-
080212 703  0.2-  0.1+    080229 G72  0.5+  0.5+    080307 H51  0.2-  0.1-
080212 703  0.4-  0.2+    080229 G72  0.5+  0.6+    080307 H51  0.5-  0.2+
080213 046  0.0   0.3+    080229 G72  0.3+  0.7+    080307 H51  0.5-  0.1-
080213 046  0.0   0.0     080229 G72  0.3-  0.3-    080307 H51  0.5-  0.4-
080213 046  0.1+  0.1-    080229 G72  0.0   0.5+    080307 H51  0.5-  0.3-
080213 046  0.2+  0.4-    080229 G72  0.6+  0.2+    080307 H51  0.5-  0.2-
080213 046  0.0   0.1+    080301 J51  0.3-  0.1-    080307 H51  0.2-  0.0
080213 046  0.2-  0.3+    080301 J51  0.2-  0.1-    080307 H51  0.4-  0.0
080213 046  0.1-  0.2+    080301 J51  0.1-  0.1-    080307 H51  0.3-  0.2-
080213 704  0.4+  0.1-    080301 H45  0.2-  0.1-    080307 H51  0.3-  0.1-
080213 704  0.1+  0.2+    080301 H45  0.1-  0.2-    080307 H51  0.5-  0.4-
080213 704  0.3+  0.1+    080301 H45  0.2+  0.0     080307 H51  0.3-  0.1-
080213 704  0.2+  0.2+    080301 H45  0.0   0.1-    080307 H51  0.5-  0.1-
080213 704  0.5+  0.0     080301 H45  0.2-  0.0     080307 H51  0.3-  0.2-
080213 355  1.2+  0.2-    080301 H45  0.1-  0.1-    080307 H51  0.3-  0.1-
080213 355  0.3+  0.5-    080301 H45  0.0   0.2-    080307 H51  0.0   0.1+
080213 355  1.2+  0.1-    080301 379  0.2+  0.5+    080307 H51  0.0   0.2+
080213 355  0.1+  1.0-    080301 379  0.1+  0.4+    080307 H51  0.3-  0.0
080213 355  0.3+  0.7-    080301 379  0.1+  0.3+    080307 H51  0.6-  0.1-
080213 355  0.1-  0.5+    080301 379  0.4-  0.3+    080307 H51  0.1-  0.0
080213 A78  0.3-  0.3+    080301 379  0.1+  0.1-    080307 H51  0.2-  0.5-
080213 A78  0.5-  0.2+    080301 379  0.4-  0.3+    080307 H51  0.5-  0.1-
080213 A78  0.4-  0.0     080301 379  0.1-  0.6+    080307 H51  0.1+  0.1-
080213 A78  0.4-  0.3+    080301 A48  0.4+  0.1-    080307 H51  0.1-  0.3-
080214 130  0.8-  0.2+    080301 A48  0.8+  0.2+    080307 H51  0.5-  0.3-
080214 130  0.0   0.1-    080301 A48  0.6+  0.4+    080307 379  0.3-  0.0
080214 130  0.3+  0.3-    080301 A48  0.7+  0.1-    080307 379  0.3-  0.2+
080214 130  0.3-  0.1-    080303 703  0.5-  0.1+    080307 379  0.5-  0.1-
080214 A78  0.2-  0.5-    080303 703  0.0   0.2-    080307 J69  0.4+  0.1+
080214 A78  0.2-  0.3-    080303 703  0.3-  0.1+    080307 J69  0.5+  0.2-
080214 A78  1.0-  1.0-    080303 703  0.4-  0.0     080307 J69  0.6+  0.1+
080214 A78  0.1-  0.4-    080303 G72  0.1+  0.7-    080307 J69  0.3+  0.4-
080216 G72  0.3-  0.3+    080303 G72  0.6-  0.2-    080308 704  0.4+  0.2+
080216 G72 (3.0+  0.4-)   080303 G72  0.3+  0.5-    080308 704  0.4+  0.5+
080216 G72  0.1-  0.5+    080303 G72  0.8+  0.4-    080308 704  0.5+  0.4+
080216 G72  0.7+  1.2+    080303 G72  0.6+  0.5-    080308 704  0.5+  0.5+
080216 G72  0.0   0.5+    080303 G72  0.3-  0.1-    080308 704  0.5+  0.6+
080217 046  0.3-  0.6-    080303 379  0.6+  0.6+    080308 379  0.2-  0.2+
080217 046  0.4-  0.1-    080303 379  0.8+  0.9+    080308 379  0.0   0.4+
080217 046  0.4+  0.3-    080303 379  0.1+  0.4+    080308 379  0.1+  0.1+
080217 046  0.0   0.1+    080303 510  0.3+  0.4+    080308 379  0.1+  0.2-
080217 046  0.3+  0.2-    080303 510  0.4+  0.5+    080308 379  0.0   0.1+
080217 046  0.1+  0.2-    080303 510  0.8+  0.1-    080308 379  0.2-  0.1+
080217 046  0.0   0.3+    080304 704  0.3+  0.1+    080309 A92 (1.7+  0.6+)
080218 703  0.3-  0.1+    080304 704  0.4+  0.1+    080309 A92 (1.9+  2.9+)
080218 703  0.1-  0.0     080304 704  0.7+  0.1+    080309 A92  0.7+  1.5+
080218 703  0.0   0.1+    080304 704  0.6+  0.2+    080309 A92 (1.8+  1.8+)
080218 703  0.3-  0.2-    080304 704  0.6+  0.2+    080310 E19  1.0+  0.2-
080218 379  0.5-  0.0     080305 H51  0.3-  0.2-    080310 E19  0.7+  0.3-
080218 379  0.6-  0.1-    080305 H51  0.4-  0.3-    080310 E19  0.6+  0.1-
080218 379  0.2-  0.8-    080305 H51  0.6-  0.2-    080310 379  0.5+  0.6+
080218 379  1.0-  0.5-    080305 H51  0.3-  0.3-    080310 379  0.8+  0.4+
080218 379  0.2-  0.6-    080305 H51  0.1-  0.0     080310 379  0.5+  0.3+
080218 379  0.6-  0.4+    080305 H51  0.2-  0.0     080310 379  0.5+  0.2+
080218 379  0.4+  0.2+    080305 H51  0.0   0.1-    080310 379  0.3+  0.2+
080219 H45  0.1-  0.1-    080305 H51  0.3-  0.2-    080310 379  0.1+  0.1-
080219 H45  0.0   0.0     080305 H51  0.4-  0.1-    080311 H51  0.4-  0.0
080219 H45  0.1-  0.1-    080305 H51  0.3-  0.1-    080311 H51  0.3-  0.2-
080219 H45  0.1-  0.1+    080305 H51  0.4-  0.1+    080311 H51  0.6-  0.3-
080219 H45  0.6+  0.0     080305 H51  0.3-  0.2-    080311 H51  0.2-  0.0
080219 H45  0.1+  0.3-    080305 H51  0.2-  0.1-    080311 H51  0.3-  0.0
080219 H45  0.0   0.2-    080305 H51  0.3-  0.1-    080311 H51  0.1+  0.1+
080221 J40  1.3-  0.9-    080305 H51  0.3-  0.1-    080311 H51  0.6-  0.1-
080223 H51  0.1+  0.3-    080305 H51  0.1-  0.0     080311 H51  0.5-  0.2-
080223 H51  0.1+  0.3-    080305 H51  0.3-  0.0     080311 H51  0.2-  0.1+
080223 H51  0.1-  0.2+    080305 H51  0.3-  0.2-    080311 379  0.2+  0.5+
080223 H51  0.4-  0.0     080305 H51  0.4-  0.4-    080311 379  0.1-  0.4+
080223 H51  0.3-  0.3-    080305 H51  0.3-  0.0     080311 379  0.2+  0.2+
080223 H51  0.1-  0.3+    080305 H51  0.4-  0.3-    080311 379  0.6+  0.2-
080223 H51  0.3-  0.5+    080305 H51  0.0   0.3-    080311 379  0.2+  0.2-
080223 H51  0.4-  0.2+    080305 H51  0.4-  0.0     080311 A81  0.1+  0.1+
080223 H51  0.0   0.1-    080305 H51  0.6-  0.2-    080311 A81  0.2-  0.3+
080223 H51  0.1+  0.1-    080305 H51  0.4-  0.2-    080311 A81  0.1+  0.0
080223 H51  0.0   0.1+    080305 H51  0.2-  0.2-    080311 A81  0.2-  0.2-
080223 H51  0.1-  0.1-    080305 H51  0.2-  0.2-    080315 379  0.4+  0.5+
080223 H51  0.0   0.3-    080305 H51  0.3-  0.1-    080315 379  0.1-  0.5+
080223 H51  0.4+  0.2-    080305 H51  0.2-  0.0     080315 379  0.2-  0.2-
080223 H51  0.5+  0.1+    080305 H51  0.2-  0.1-    080609 474  0.3-  1.4+
080223 H51  0.0   0.5-    080305 704  0.4+  0.4+    080609 474  0.5-  0.2-
080223 H51  0.4+  0.1-    080305 704  0.5+  0.2+    080609 474  1.2+  0.0
080223 H51  0.1+  0.1+    080305 704  0.6+  0.2+    081222 493  0.1+  0.3-
080223 H51  0.1-  0.0     080305 704  0.7+  0.0     081222 493  0.2+  0.3+
080223 H51  0.0   0.1+    080305 704  0.6+  0.3+    081222 493  0.0   0.2+
080223 H51  0.3+  0.3+    080305 704  0.7+  0.3+    081223 493  0.1+  0.1-
080223 H51  0.1-  0.1+    080305 704  0.7+  0.4+    081223 493  0.2+  0.2-
080223 H51  0.1-  0.2+    080305 704  0.8+  0.3+    081223 493  0.2-  0.1-

